Powrót do katalogu

QIANFAN-142

AktywnyŁącznośćPO
NORAD 69088·PAYLOAD·🇨🇳 China

Wystrzelony May 12, 2026 z Taiyuan Satellite Launch Center

Loading…

Następne Przeloty (najbliższe 24 godziny)

TLE

ŚwieżeSource: Space-Track

Epoka: Sep 14, 2026, 14:16 UTC

1 69088U 26104R   26257.59487325  .00000119  00000-0  16634-3 0  9993
2 69088  88.9903 332.3171 0002439 109.7285 250.4130 13.51030778 17244

Śledź QIANFAN-142 w czasie rzeczywistym z AllMySat

Download on the App Store